SCP
0 0 0 0 0 0 0 0 0 0 0 0 0 0 0 0 0 0 0 0 0 0 0 0 0 0 0 0 0 0 0 0 0 0 0 0 0 0 0 0 0 0 0 0
0 0 0 0 0 0 0 0 0 0 0 0 0 0 0 0 0 0 0 0 0 0 0 0 0 0 0 0 0 0 0 0 0 0 0 0 0 0 0 0 0 0 0 0
0 0 0 0 0 0 0 0 0 0 0 0 0 0 0 0 0 0 0 0 0 0 0 0 0 0 0 0 0 0 0 0 0 0 0 0 0 0 0 0 0 0 0 0
0 0 0 0 0 0 0 0 0 0 0 0 0 0 0 0 0 0 0 0 0 0 0 0 0 0 0 0 0 0 0 0 0 0 0 0 0 0 0 0 0 0 0 0
0 0 0 0 0 0 0 0 0 0 0 0 0 0 0 0 0 0 0 0 0 0 0 0 0 0 0 0 0 0 0 0 0 0 0 0 0 0 0 0 0 0 0 0
0 0 0 0 0 0 0 0 0 0 0 0 0 0 0 0 0 0 0 0 0 0 0 0 0 0 0 0 0 0 0 0 0 0 0 0 0 0 0 0 0 0 0 0
0 0 0 0 0 0 0 0 0 0 0 0 0 0 0 0 0 0 0 0 0 0 0 0 0 0 0 0 0 0 0 0 0 0 0 0 0 0 0 0 0 0 0 0
0 0 0 0 0 0 0 0 0 0 0 0 0 0 0 0 0 0 0 0 0 0 0 0 0 0 0 0 0 0 0 0 0 0 0 0 0 0 0 0 0 0 0 0
0 0 0 0 0 0 0 0 0 0 0 0 0 0 0 0 0 0 0 0 0 0 0 0 0 0 0 0 0 0 0 0 0 0 0 0 0 0 0 0 0 0 0 0
0 0 0 0 0 0 0 0 0 0 0 0 0 0 0 0 0 0 0 0 0 0 0 0 0 0 0 0 0 0 0 0 0 0 0 0 0 0 0 0 0 0 0 0
-0 0 0 0 0 0 0 0 0 0 0 0 0 0 0 0 0 0 0 0 0 0 0 0 0 0 0 0 0 0 0 0 0 0 0 0 0 0 0 0 0 0 0 0
-0 0 0 0 0 0 0 0 0 0 0 0 0 0 0 0 0 0 0 0 0 0 0 0 0 0 0 0 0 0 0 0 0 0 0 0 0 0 0 0 0 0 0 0
0 0 0 0 0 0 0 0 0 0 0 0 0 0 0 0 0 0 0 0 0 0 0 0 0 0 0 0 0 0 0 0 0 0 0 0 0 0 0 0 0 0 0 0
-0 -0 -0 -0 0 -0 0 0 0 0 0 0 -0 -0 0 -0 0 0 0 0 0 0 0 0 0 0 0 0 0 0 0 0 0 0 0 0 0 0 0 0 0 0 0 0
-0 -0 -0 0 0 0 0 -0 0 0 -0 -0 0 -0 -0 -0 0 0 0 0 0 0 0 0 0 0 0 0 0 0 0 0 0 0 0 0 0 0 0 0 0 0 0 0
0 -0 -0 0 0 0 -0 -0 -0 -0 -0 -0 0 -0 -0 -0 -0 0 0 0 0 0 0 0 0 0 0 0 0 0 0 0 0 0 0 0 0 0 0 0 0 0 0 0
0 0 -0 -0 0 0 0 0 0 -0 -0 0 -0 -0 0 0 0 0 0 0 0 0 0 0 0 0 0 0 0 0 0 0 0 0 0 0 0 0 0 0 0 0 0 0
-0 -0 -0 -0 -0 0 0 -0 -0 -0 -0 -0 -0 -0 -0 0 0 0 0 0 0 0 0 0 0 0 0 0 0 0 0 0 0 0 0 0 0 0 0 0 0 0 0 0
-0 -0 0 0 0 0 0 0 0 0 -0 0 -0 -0 -0 -0 -0 0 0 0 0 0 0 0 0 0 0 0 0 0 0 0 0 0 0 0 -0 0 -0 0 -0 -0 -0 -0
-0 0 0 0 0 0 0 0 0 0 0 -0 -0 0 0 0 0 0 0 0 0 0 0 0 0 0 0 0 0 0 0 0 0 0 0 0 0 0 0 0 0 -0 -0 -0
-0 0 -0 0 0 0 0 0 0 0 0 0 0 0 0 0 0 0 0 0 0 0 0 0 0 0 0 0 0 0 0 0 0 0 0 0 0 0 0 0 0 0 0 -0
0 0 0 0 0 0 0 0 0 0 0 0 0 0 0 0 0 0 0 0 0 0 0 0 0 0 0 0 0 0 0 0 0 0 0 0 0 0 0 0 0 0 0 0
0 0 0 0 0 0 0 0 0 0 0 0 0 0 0 0 0 0 0 0 0 0 0 0 0 0 0 0 0 0 0 0 0 0 0 0 0 0 0 0 0 0 0 0
0 0 0 0 -0 0 0 0 0 0 0 0 0 0 0 0 0 0 0 0 0 0 0 0 0 0 0 0 0 0 0 0 0 0 0 0 0 0 0 0 0 0 0 0
0 0 0 0 -0 -0 0 0 0 0 0 0 0 0 0 0 0 0 0 0 0 0 0 0 0 0 0 0 0 0 0 0 0 0 0 0 0 0 0 0 0 0 0 0
-0 -0 0 -0 0 0 0 0 0 0 0 0 0 0 0 0 0 0 0 0 0 0 0 0 0 0 0 0 0 0 0 0 0 0 0 0 0 0 0 0 0 0 0 0
0 -0 0 0 0 0 0 0 0 0 0 0 0 0 0 0 0 0 0 0 0 0 0 0 0 0 0 0 0 0 0 0 0 0 0 0 0 0 0 0 0 0 0 0
Wind_Speed_500mb
24 23 17 27 30 24 28 34 29 31 31 17 24 28 39 41 33 38 44 45 42 35 30 26 22 20 20 25 32 32 25 25 28 32 38 46 52 57 61 63 64 64 64 62
35 29 26 40 43 43 42 42 40 39 36 16 18 20 26 37 41 50 51 47 40 35 31 30 23 21 23 24 23 21 23 29 37 45 50 56 59 60 61 60 59 58 56 55
33 17 23 31 41 44 41 33 33 37 38 13 18 27 38 38 36 43 43 42 39 37 31 30 26 23 23 20 19 24 30 37 44 49 54 57 58 57 55 54 52 51 50 48
14 7 27 23 10 25 39 39 36 32 21 22 22 15 9 14 25 29 31 36 34 32 33 29 28 26 22 20 24 31 39 46 50 51 50 51 51 47 47 46 45 42 44 45
12 21 31 36 3 8 16 24 27 30 29 18 13 10 4 6 11 15 23 29 33 33 33 31 25 16 15 23 31 38 42 45 45 44 44 43 43 49 50 46 46 45 43 43
11 15 26 18 7 46 14 31 20 25 19 26 26 17 8 13 19 27 32 35 35 33 28 18 12 15 22 30 36 39 43 47 47 42 39 44 47 48 48 45 45 43 46 44
29 17 17 8 11 6 21 1 18 24 27 33 20 1 34 35 38 39 40 38 32 23 13 7 12 21 28 33 37 42 43 41 39 39 42 45 45 42 43 41 39 40 42 42
21 24 36 22 9 22 13 18 17 15 23 29 21 38 44 45 46 44 41 32 21 11 2 10 19 24 26 25 30 30 37 37 36 35 39 38 45 43 40 41 42 39 39 39
7 6 14 14 18 25 22 24 13 11 12 26 38 44 43 43 40 37 28 18 8 2 8 15 22 24 19 20 31 39 42 42 41 40 39 39 42 42 42 38 39 41 38 39
16 2 22 36 27 23 20 18 18 9 31 40 47 41 42 40 34 24 15 8 3 9 15 14 16 17 17 23 29 40 41 42 44 44 42 42 40 40 40 40 41 42 45 48
14 27 34 10 30 19 9 8 17 28 38 49 52 42 38 31 23 16 8 3 10 14 13 10 12 17 21 25 32 40 44 47 43 43 41 38 40 42 44 43 41 49 54 57
7 11 16 23 17 3 18 31 38 53 55 44 41 36 26 20 10 5 2 7 11 12 9 10 16 21 25 32 36 39 44 42 43 41 38 40 46 50 46 44 43 43 47 56
18 18 18 11 11 22 37 42 43 45 46 43 36 29 22 17 9 4 5 9 9 9 11 14 23 28 25 27 32 36 43 45 46 44 41 44 49 55 63 58 50 46 47 50
30 24 15 22 14 31 44 44 42 47 44 37 28 20 12 9 6 4 7 10 10 10 13 20 24 23 26 32 38 42 46 48 48 45 50 51 55 59 61 63 66 66 59 61
55 47 52 44 26 28 28 34 37 37 32 28 22 17 13 9 6 6 10 10 10 14 15 20 26 29 35 42 40 42 43 42 46 50 52 55 60 62 60 62 63 66 70 69
8 21 30 19 24 20 28 33 37 32 24 22 17 15 13 14 14 13 13 19 20 15 19 27 34 40 45 49 46 45 45 55 59 54 52 52 55 58 60 62 62 64 65 66
26 29 33 32 32 31 30 29 30 29 25 21 19 20 21 19 17 21 22 24 24 14 25 33 40 47 48 52 49 52 53 58 54 51 49 53 57 61 64 64 65 65 65 63
31 32 34 35 34 35 33 33 33 30 27 25 26 28 26 25 25 23 24 27 29 25 25 34 38 47 51 50 55 57 55 55 51 48 52 59 60 60 60 60 62 60 61 57
44 47 47 46 46 45 42 41 37 35 33 34 33 31 30 28 26 24 25 28 29 34 39 40 48 49 50 53 54 52 53 55 54 53 55 62 61 59 60 59 57 57 55 54
37 39 37 37 39 42 45 43 38 36 33 29 28 28 26 24 23 24 27 25 37 42 43 48 50 53 55 61 56 51 52 56 56 55 58 59 59 61 59 57 56 56 56 55
24 22 21 21 21 20 23 27 27 24 22 21 20 19 19 21 25 28 30 30 44 46 47 49 53 57 59 63 54 50 56 58 55 56 60 60 62 61 58 57 56 56 56 52
24 15 11 10 12 12 8 7 5 7 8 9 9 11 15 18 21 23 33 40 46 46 48 50 54 56 57 58 51 52 63 64 59 57 59 58 59 60 61 60 60 57 52 48
21 18 8 6 6 4 4 5 3 3 2 4 7 11 12 15 23 28 36 41 42 43 45 48 51 55 56 59 57 54 64 70 68 62 58 60 62 66 68 67 61 56 52 48
22 23 9 4 5 5 10 12 10 10 8 8 10 11 11 17 24 30 33 37 37 39 42 47 50 53 57 60 63 60 62 73 75 71 65 65 70 71 72 70 62 58 54 50
9 7 14 15 6 6 14 17 21 21 18 16 15 14 14 19 24 28 32 32 35 40 44 46 49 53 58 61 64 67 66 69 78 80 77 71 73 76 78 73 64 59 57 53
23 18 16 14 9 18 20 20 25 22 25 25 20 19 18 21 26 29 30 33 37 42 46 48 51 53 55 59 63 67 71 71 75 81 82 80 77 79 81 81 69 64 59 53
40 32 21 16 22 28 20 19 17 16 20 26 24 19 18 23 27 28 31 35 40 43 46 49 51 53 54 57 61 66 70 74 76 80 84 84 81 82 83 84 75 66 58 53
Wind_Direction_500mb
251 250 241 264 257 220 218 239 239 259 240 232 217 216 217 222 208 205 211 212 213 206 200 196 215 234 253 247 242 254 269 283 290 295 297 299 299 297 294 293 292 291 291 287
267 263 248 258 255 252 237 241 244 258 259 236 244 233 234 225 211 212 212 210 204 197 195 200 223 228 221 223 232 249 269 286 296 302 303 303 302 300 299 297 296 294 290 285
260 254 251 258 243 236 234 229 233 240 257 209 225 233 239 241 228 225 218 206 194 189 190 210 214 212 209 220 246 268 285 296 301 303 303 303 304 303 303 303 302 300 297 291
265 242 238 258 328 248 237 236 224 246 251 235 256 237 219 242 235 224 209 195 180 178 196 199 199 202 217 246 278 295 301 304 306 306 306 305 304 304 303 303 300 299 299 298
231 224 259 264 260 231 214 244 229 234 245 218 186 168 214 227 199 184 175 166 174 182 187 185 190 213 260 282 291 300 305 307 309 309 309 308 307 305 303 301 300 300 299 300
195 225 234 283 278 259 244 260 246 231 208 188 169 211 164 145 144 148 150 159 162 162 163 179 217 264 288 300 307 307 307 307 308 310 310 312 312 307 304 304 302 302 301 303
225 237 257 283 336 334 206 229 336 228 212 180 193 319 142 137 125 134 145 147 149 151 166 220 285 303 304 302 301 302 304 308 308 307 308 315 313 311 310 309 308 306 303 302
222 234 241 15 296 240 332 319 312 227 199 179 136 131 131 132 130 132 132 132 136 142 231 298 296 298 303 306 304 308 308 308 304 303 305 305 309 309 307 309 311 311 310 311
288 220 352 334 300 302 293 275 299 240 192 163 135 133 132 129 125 124 125 126 136 252 312 318 314 311 313 312 314 314 312 308 304 300 302 305 308 306 307 307 306 305 305 306
337 25 308 314 308 299 298 276 272 225 155 146 135 134 126 125 125 124 123 117 37 332 324 323 320 323 321 316 319 318 318 313 309 307 306 304 300 300 302 303 304 303 304 304
239 272 313 316 333 307 284 281 152 140 140 134 130 125 126 125 124 120 108 15 322 323 328 336 342 332 324 315 314 322 321 321 317 314 311 308 309 311 311 308 306 304 307 305
272 333 300 318 330 179 134 125 126 124 117 116 123 122 121 110 111 120 303 309 328 343 356 346 333 326 323 320 319 320 323 326 325 316 306 307 311 311 311 307 301 296 298 299
290 320 325 326 87 120 111 106 109 113 118 122 120 125 136 143 167 218 306 345 359 1 359 339 325 321 323 326 333 332 329 327 325 320 309 306 308 310 312 314 307 299 302 304
306 274 179 147 72 93 101 102 103 106 102 104 113 125 139 143 126 36 359 356 4 11 351 347 356 354 352 345 337 333 328 324 320 313 313 308 307 309 310 310 310 309 305 309
65 100 123 125 101 102 106 116 114 110 117 122 125 120 107 83 50 37 28 25 17 3 7 6 1 352 347 343 330 322 319 315 314 311 308 305 306 308 311 313 311 309 311 310
30 105 138 113 108 104 118 117 116 113 114 106 101 96 89 73 62 53 35 16 8 9 3 355 349 343 338 334 327 323 319 321 325 320 315 314 314 317 313 310 307 306 306 306
74 92 105 102 108 115 112 111 114 113 106 101 95 83 73 71 68 49 33 19 4 352 357 343 336 335 336 334 329 327 325 328 328 327 328 326 322 315 312 310 309 306 305 305
94 104 105 107 105 105 103 102 101 99 94 92 90 83 79 70 63 54 40 28 21 8 346 339 342 337 337 339 335 334 334 333 333 331 331 329 321 316 314 311 310 309 310 310
90 94 98 99 91 87 91 94 93 91 93 91 87 84 80 74 65 51 36 22 9 2 0 353 347 347 346 346 342 343 342 340 337 333 329 328 327 325 323 320 317 315 313 311
82 86 88 90 89 87 87 82 82 86 88 90 87 80 75 66 53 38 25 12 5 1 357 354 354 355 354 354 352 349 346 345 342 339 337 335 335 334 330 327 324 320 317 315
70 68 72 82 84 86 85 88 86 90 98 98 87 74 60 44 29 16 10 6 2 2 1 1 1 360 359 356 356 357 355 351 348 347 347 347 345 342 340 337 333 330 325 319
54 51 27 44 61 60 70 82 87 86 98 100 85 61 36 20 10 7 5 5 1 2 4 4 4 4 2 0 3 3 4 2 359 355 354 354 354 352 349 346 342 338 331 324
355 3 12 55 59 33 16 23 33 29 340 3 8 8 1 355 360 360 5 2 3 5 5 7 6 5 5 8 7 6 8 8 7 4 3 2 360 358 355 353 350 348 344 335
38 31 27 43 81 87 89 68 70 68 46 2 353 355 6 11 5 3 2 1 4 7 9 8 8 8 9 11 13 11 11 12 12 12 10 8 5 2 0 360 358 357 355 353
60 12 31 45 90 80 120 85 88 78 54 30 23 25 27 17 9 6 4 5 8 11 11 10 10 11 13 13 14 14 14 13 14 14 14 10 7 6 6 6 5 4 5 5
31 21 10 20 103 108 109 92 74 70 56 43 46 48 36 21 13 11 11 13 15 15 15 13 13 12 13 14 15 16 16 15 15 15 14 14 12 11 10 10 12 11 11 13
41 38 45 67 103 106 88 40 69 63 55 46 47 52 38 25 19 18 20 20 20 20 18 16 17 15 14 15 16 17 17 18 18 17 17 15 14 14 13 14 15 15 18 21
Wind_Speed_850mb
24 23 17 27 30 24 28 34 29 31 31 17 24 28 39 41 33 38 44 45 42 35 30 26 22 20 20 25 32 32 25 25 28 32 38 46 52 57 61 63 64 64 64 62
35 29 26 40 43 43 42 42 40 39 36 16 18 20 26 37 41 50 51 47 40 35 31 30 23 21 23 24 23 21 23 29 37 45 50 56 59 60 61 60 59 58 56 55
33 17 23 31 41 44 41 33 33 37 38 13 18 27 38 38 36 43 43 42 39 37 31 30 26 23 23 20 19 24 30 37 44 49 54 57 58 57 55 54 52 51 50 48
14 7 27 23 10 25 39 39 36 32 21 22 22 15 9 14 25 29 31 36 34 32 33 29 28 26 22 20 24 31 39 46 50 51 50 51 51 47 47 46 45 42 44 45
12 21 31 36 3 8 16 24 27 30 29 18 13 10 4 6 11 15 23 29 33 33 33 31 25 16 15 23 31 38 42 45 45 44 44 43 43 49 50 46 46 45 43 43
11 15 26 18 7 46 14 31 20 25 19 26 26 17 8 13 19 27 32 35 35 33 28 18 12 15 22 30 36 39 43 47 47 42 39 44 47 48 48 45 45 43 46 44
29 17 17 8 11 6 21 1 18 24 27 33 20 1 34 35 38 39 40 38 32 23 13 7 12 21 28 33 37 42 43 41 39 39 42 45 45 42 43 41 39 40 42 42
21 24 36 22 9 22 13 18 17 15 23 29 21 38 44 45 46 44 41 32 21 11 2 10 19 24 26 25 30 30 37 37 36 35 39 38 45 43 40 41 42 39 39 39
7 6 14 14 18 25 22 24 13 11 12 26 38 44 43 43 40 37 28 18 8 2 8 15 22 24 19 20 31 39 42 42 41 40 39 39 42 42 42 38 39 41 38 39
16 2 22 36 27 23 20 18 18 9 31 40 47 41 42 40 34 24 15 8 3 9 15 14 16 17 17 23 29 40 41 42 44 44 42 42 40 40 40 40 41 42 45 48
14 27 34 10 30 19 9 8 17 28 38 49 52 42 38 31 23 16 8 3 10 14 13 10 12 17 21 25 32 40 44 47 43 43 41 38 40 42 44 43 41 49 54 57
7 11 16 23 17 3 18 31 38 53 55 44 41 36 26 20 10 5 2 7 11 12 9 10 16 21 25 32 36 39 44 42 43 41 38 40 46 50 46 44 43 43 47 56
18 18 18 11 11 22 37 42 43 45 46 43 36 29 22 17 9 4 5 9 9 9 11 14 23 28 25 27 32 36 43 45 46 44 41 44 49 55 63 58 50 46 47 50
30 24 15 22 14 31 44 44 42 47 44 37 28 20 12 9 6 4 7 10 10 10 13 20 24 23 26 32 38 42 46 48 48 45 50 51 55 59 61 63 66 66 59 61
55 47 52 44 26 28 28 34 37 37 32 28 22 17 13 9 6 6 10 10 10 14 15 20 26 29 35 42 40 42 43 42 46 50 52 55 60 62 60 62 63 66 70 69
8 21 30 19 24 20 28 33 37 32 24 22 17 15 13 14 14 13 13 19 20 15 19 27 34 40 45 49 46 45 45 55 59 54 52 52 55 58 60 62 62 64 65 66
26 29 33 32 32 31 30 29 30 29 25 21 19 20 21 19 17 21 22 24 24 14 25 33 40 47 48 52 49 52 53 58 54 51 49 53 57 61 64 64 65 65 65 63
31 32 34 35 34 35 33 33 33 30 27 25 26 28 26 25 25 23 24 27 29 25 25 34 38 47 51 50 55 57 55 55 51 48 52 59 60 60 60 60 62 60 61 57
44 47 47 46 46 45 42 41 37 35 33 34 33 31 30 28 26 24 25 28 29 34 39 40 48 49 50 53 54 52 53 55 54 53 55 62 61 59 60 59 57 57 55 54
37 39 37 37 39 42 45 43 38 36 33 29 28 28 26 24 23 24 27 25 37 42 43 48 50 53 55 61 56 51 52 56 56 55 58 59 59 61 59 57 56 56 56 55
24 22 21 21 21 20 23 27 27 24 22 21 20 19 19 21 25 28 30 30 44 46 47 49 53 57 59 63 54 50 56 58 55 56 60 60 62 61 58 57 56 56 56 52
24 15 11 10 12 12 8 7 5 7 8 9 9 11 15 18 21 23 33 40 46 46 48 50 54 56 57 58 51 52 63 64 59 57 59 58 59 60 61 60 60 57 52 48
21 18 8 6 6 4 4 5 3 3 2 4 7 11 12 15 23 28 36 41 42 43 45 48 51 55 56 59 57 54 64 70 68 62 58 60 62 66 68 67 61 56 52 48
22 23 9 4 5 5 10 12 10 10 8 8 10 11 11 17 24 30 33 37 37 39 42 47 50 53 57 60 63 60 62 73 75 71 65 65 70 71 72 70 62 58 54 50
9 7 14 15 6 6 14 17 21 21 18 16 15 14 14 19 24 28 32 32 35 40 44 46 49 53 58 61 64 67 66 69 78 80 77 71 73 76 78 73 64 59 57 53
23 18 16 14 9 18 20 20 25 22 25 25 20 19 18 21 26 29 30 33 37 42 46 48 51 53 55 59 63 67 71 71 75 81 82 80 77 79 81 81 69 64 59 53
40 32 21 16 22 28 20 19 17 16 20 26 24 19 18 23 27 28 31 35 40 43 46 49 51 53 54 57 61 66 70 74 76 80 84 84 81 82 83 84 75 66 58 53
Wind_Direction_850mb
251 250 241 264 257 220 218 239 239 259 240 232 217 216 217 222 208 205 211 212 213 206 200 196 215 234 253 247 242 254 269 283 290 295 297 299 299 297 294 293 292 291 291 287
267 263 248 258 255 252 237 241 244 258 259 236 244 233 234 225 211 212 212 210 204 197 195 200 223 228 221 223 232 249 269 286 296 302 303 303 302 300 299 297 296 294 290 285
260 254 251 258 243 236 234 229 233 240 257 209 225 233 239 241 228 225 218 206 194 189 190 210 214 212 209 220 246 268 285 296 301 303 303 303 304 303 303 303 302 300 297 291
265 242 238 258 328 248 237 236 224 246 251 235 256 237 219 242 235 224 209 195 180 178 196 199 199 202 217 246 278 295 301 304 306 306 306 305 304 304 303 303 300 299 299 298
231 224 259 264 260 231 214 244 229 234 245 218 186 168 214 227 199 184 175 166 174 182 187 185 190 213 260 282 291 300 305 307 309 309 309 308 307 305 303 301 300 300 299 300
195 225 234 283 278 259 244 260 246 231 208 188 169 211 164 145 144 148 150 159 162 162 163 179 217 264 288 300 307 307 307 307 308 310 310 312 312 307 304 304 302 302 301 303
225 237 257 283 336 334 206 229 336 228 212 180 193 319 142 137 125 134 145 147 149 151 166 220 285 303 304 302 301 302 304 308 308 307 308 315 313 311 310 309 308 306 303 302
222 234 241 15 296 240 332 319 312 227 199 179 136 131 131 132 130 132 132 132 136 142 231 298 296 298 303 306 304 308 308 308 304 303 305 305 309 309 307 309 311 311 310 311
288 220 352 334 300 302 293 275 299 240 192 163 135 133 132 129 125 124 125 126 136 252 312 318 314 311 313 312 314 314 312 308 304 300 302 305 308 306 307 307 306 305 305 306
337 25 308 314 308 299 298 276 272 225 155 146 135 134 126 125 125 124 123 117 37 332 324 323 320 323 321 316 319 318 318 313 309 307 306 304 300 300 302 303 304 303 304 304
239 272 313 316 333 307 284 281 152 140 140 134 130 125 126 125 124 120 108 15 322 323 328 336 342 332 324 315 314 322 321 321 317 314 311 308 309 311 311 308 306 304 307 305
272 333 300 318 330 179 134 125 126 124 117 116 123 122 121 110 111 120 303 309 328 343 356 346 333 326 323 320 319 320 323 326 325 316 306 307 311 311 311 307 301 296 298 299
290 320 325 326 87 120 111 106 109 113 118 122 120 125 136 143 167 218 306 345 359 1 359 339 325 321 323 326 333 332 329 327 325 320 309 306 308 310 312 314 307 299 302 304
306 274 179 147 72 93 101 102 103 106 102 104 113 125 139 143 126 36 359 356 4 11 351 347 356 354 352 345 337 333 328 324 320 313 313 308 307 309 310 310 310 309 305 309
65 100 123 125 101 102 106 116 114 110 117 122 125 120 107 83 50 37 28 25 17 3 7 6 1 352 347 343 330 322 319 315 314 311 308 305 306 308 311 313 311 309 311 310
30 105 138 113 108 104 118 117 116 113 114 106 101 96 89 73 62 53 35 16 8 9 3 355 349 343 338 334 327 323 319 321 325 320 315 314 314 317 313 310 307 306 306 306
74 92 105 102 108 115 112 111 114 113 106 101 95 83 73 71 68 49 33 19 4 352 357 343 336 335 336 334 329 327 325 328 328 327 328 326 322 315 312 310 309 306 305 305
94 104 105 107 105 105 103 102 101 99 94 92 90 83 79 70 63 54 40 28 21 8 346 339 342 337 337 339 335 334 334 333 333 331 331 329 321 316 314 311 310 309 310 310
90 94 98 99 91 87 91 94 93 91 93 91 87 84 80 74 65 51 36 22 9 2 0 353 347 347 346 346 342 343 342 340 337 333 329 328 327 325 323 320 317 315 313 311
82 86 88 90 89 87 87 82 82 86 88 90 87 80 75 66 53 38 25 12 5 1 357 354 354 355 354 354 352 349 346 345 342 339 337 335 335 334 330 327 324 320 317 315
70 68 72 82 84 86 85 88 86 90 98 98 87 74 60 44 29 16 10 6 2 2 1 1 1 360 359 356 356 357 355 351 348 347 347 347 345 342 340 337 333 330 325 319
54 51 27 44 61 60 70 82 87 86 98 100 85 61 36 20 10 7 5 5 1 2 4 4 4 4 2 0 3 3 4 2 359 355 354 354 354 352 349 346 342 338 331 324
355 3 12 55 59 33 16 23 33 29 340 3 8 8 1 355 360 360 5 2 3 5 5 7 6 5 5 8 7 6 8 8 7 4 3 2 360 358 355 353 350 348 344 335
38 31 27 43 81 87 89 68 70 68 46 2 353 355 6 11 5 3 2 1 4 7 9 8 8 8 9 11 13 11 11 12 12 12 10 8 5 2 0 360 358 357 355 353
60 12 31 45 90 80 120 85 88 78 54 30 23 25 27 17 9 6 4 5 8 11 11 10 10 11 13 13 14 14 14 13 14 14 14 10 7 6 6 6 5 4 5 5
31 21 10 20 103 108 109 92 74 70 56 43 46 48 36 21 13 11 11 13 15 15 15 13 13 12 13 14 15 16 16 15 15 15 14 14 12 11 10 10 12 11 11 13
41 38 45 67 103 106 88 40 69 63 55 46 47 52 38 25 19 18 20 20 20 20 18 16 17 15 14 15 16 17 17 18 18 17 17 15 14 14 13 14 15 15 18 21